Location: Unspecified
(0.0000°N, 0.0000°E)
Time: 04:53:10
(UTC+00:00)

Vanguard 1 - Pass Details

Date: 18 December 2023
Orbit: 653 x 3826 km, 34.3° (Epoch: 22 February)

Event Time Altitude Azimuth Distance (km) Brightness Sun altitude
Rises 11:51:04 0° 259° (WSW) 2,959 12.6 66.6°
Reaches altitude 10° 11:53:30 10° 272° (W) 2,097 11.9 66.6°
Maximum altitude 11:57:24 26° 331° (NNW) 1,466 11.1 66.6°
Drops below altitude 10° 12:02:27 10° 27° (NNE) 2,763 12.3 66.6°
Sets 12:06:14 0° 39° (NE) 4,149 13.1 66.5°
